map of WWA home
WWA - Airport
Location
City:  Wasilla, Alaska, United States
ICAO:PAWS
IATA:WWA
FAA LID:IYS

Details
Type:Airport (Airfield)
Use:Public/Civil
Latitude:6134'19"N (61.571986)
Longitude:14932'22"W (-149.539556)
Datum:WGS 1984
Elevation:353 ft (108 m)
Variation:16.55E (WMM2015 magnetic declination)
-0.35 annual change
Runways:2
Longest:3700 × 75 ft (1128 × 23 m), paved

Time
Time Zone:UTC-9 (DST-8)
Local Time:

Weather
METAR:PAWS 182356Z AUTO 00000KT 10SM FEW045 OVC055 14/05 A2971 RMK AO2 SLP075 T01390050 10144 20111 53000

Related Locations
Nearby:
Farthest:FAAF: 10522 mi / 16933 km
Struisbaai [Andrew's Field Airport], WC, ZA

Find:

   beyond  
but within

Other Information
Maps:
NOTAMs:
Links:
Sources:

  
flag of United States
flag of Alaska
  

Sectional Chart

Flight Planning
at skyvector.com

Satellite Image

Google Maps Satellite view

 

Copyright © 2004-2017 Karl L. Swartz. All rights reserved.
The Great Circle Mapper name and logo are trademarks of the Great Circle Mapper.
All other trademarks mentioned herein belong to their respective owners.
Please see credits for attibutions and further copyright information.

  Follow gcmap on Facebook Follow gcmap on Twitter Follow gcmap on Google+ GCmap on LinkedIn

hCard Microformat

Geo Microformat